Hit Tracker is now ESPN Home Run Tracker! Hit Tracker founder Greg Rybarczyk is now collaborating with the ESPN Stats & Information Group to continue tracking all MLB home runs, and helping baseball fans know "How Far It Really Went!™" Please credit any information on this site to ESPN Stats & Information Group. For more information and analysis on home runs, please contact founder Greg Rybarczyk. E-Mail ESPN Home Run Tracker
Main Page | Ballparks | Park Overlays | Glossary | Highlight Homers | Feedback | Bio | 3 Types of HR's | AAA Home Run Derby Last Updated: May 5, 2016, 11:34 pm PST
If you want to know "How Far It Really Went!", then you've come to the right place! Welcome to the ESPN Home Run Tracker, where you can find accurate, transparently verifiable distances for every home run hit in MLB games. Please also check out the ESPN MLB Scoreboard throughout the 2016 season! Contact us at grybar@hittrackeronline.com.
Season:
Ballpark detail for Miller Park
Ballpark # of Home Runs HR per game Avg.
True
Distance
Avg.
Speed
Off
Bat
Avg.
Std.
Dist.
Miller Park 53 3.12 398.9 103.8 398.1

Scatter Plot of Home Runs Miller Park
 Overlay Ballpark:
Without range rings   With range rings

2016 Season Home Runs for Miller Park
Click headers to sort
Date Video Path Hitter Hitter
Team
Pitcher Pitcher
Team
INN Ballpark Type/
Luck
 ^
True
Dist.
Speed
Off
Bat
Elev.
Angle
Horiz.
Angle
Apex Impact Due To: Std.
Dist.
#
Parks
Wind Temp. Alt.
04/04/16 Video View Villar, Jonathan MIL Bumgarner, Madison SF 3 Miller Park JE 379 101.3 27.2 112.4 76 0 0 1 379 29
04/06/16 Video View Carter, Chris MIL Samardzija, Jeff SF 3 Miller Park JE 389 100.2 26.1 78.7 78 0 0 1 389 16
04/08/16 Video View Carter, Chris MIL Feldman, Scott HOU 1 Miller Park JE 420 105.4 23.0 86.8 75 0 0 0 419 25
04/08/16 Video View White, Tyler HOU Freeman, Sam MIL 9 Miller Park JE 388 101.2 25.9 75.8 75 0 0 1 387 22
04/09/16 Video View Rasmus, Colby HOU Peralta, Wily MIL 3 Miller Park JE 394 99.7 26.4 97.2 82 0 -1 1 393 6
04/09/16 Video View White, Tyler HOU Peralta, Wily MIL 5 Miller Park JE 423 106.1 22.7 92.5 75 0 0 0 423 26
04/09/16 Video View Nieuwenhuis, Kirk MIL Neshek, Pat HOU 6 Miller Park JE 366 107.8 20.8 67.2 49 0 0 0 366 9
04/10/16 Video View Tucker, Preston HOU Nelson, Jimmy MIL 5 Miller Park JE 389 104.4 21.7 99.7 60 0 0 0 388 4
04/20/16 Video View Rosario, Eddie MIN Nelson, Jimmy MIL 6 Miller Park JE 386 99.7 26.7 102.3 79 0 0 1 386 15
04/20/16 Video View Carter, Chris MIL Pressly, Ryan MIN 7 Miller Park JE 412 115.9 16.7 84.8 47 0 0 0 412 12
04/20/16 Video View Santana, Domingo MIL O'Rourke, Ryan MIN 8 Miller Park JE 378 100.5 26.3 71.9 73 0 0 1 378 21
04/24/16 Video View Gennett, Scooter MIL Eickhoff, Jerad PHI 6 Miller Park JE 383 99.7 27.1 105.2 79 0 -1 1 383 22
04/30/16 Video View Hechavarria, Adeiny MIA Anderson, Chase MIL 2 Miller Park JE 390 103.4 22.2 98.8 62 0 0 0 390 4
04/30/16 Video View Perez, Hernan MIL Breslow, Craig MIA 7 Miller Park JE 413 101.3 29.4 91.1 106 0 -1 2 412 19
05/01/16 Video View Santana, Domingo MIL Koehler, Tom MIA 1 Miller Park JE 365 99.7 26.1 67.9 67 0 0 1 365 12
05/01/16 Video View Carter, Chris MIL Ege, Cody MIA 4 Miller Park JE 375 110.4 22.2 127.0 53 0 0 0 374 30
05/02/16 Video View Trout, Mike LAA Nelson, Jimmy MIL 6 Miller Park JE 410 100.8 28.5 89.0 99 0 -1 1 409 15
05/04/16 Video View Perez, Hernan MIL Santiago, Hector LAA 2 Miller Park JE 383 99.5 27.8 74.2 82 0 0 1 382 22
05/04/16 Video View Trout, Mike LAA Thornburg, Tyler MIL 8 Miller Park JE 354 96.8 28.3 64.6 72 0 0 1 353 11
04/04/16 Video View Gennett, Scooter MIL Bumgarner, Madison SF 2 Miller Park ND 406 106.7 28.8 63.4 90 0 -1 1 406 30
04/04/16 Video View Panik, Joe SF Pena, Ariel MIL 8 Miller Park ND 402 104.4 32.6 69.0 116 0 -1 2 401 30
04/08/16 Video View Gennett, Scooter MIL Feldman, Scott HOU 1 Miller Park ND 426 105.7 27.8 78.1 97 0 1 1 423 29
04/09/16 Video View Rasmus, Colby HOU Peralta, Wily MIL 5 Miller Park ND 431 108.3 28.7 73.3 104 0 -1 2 430 30
04/10/16 Video View Altuve, Jose HOU Nelson, Jimmy MIL 1 Miller Park ND 443 111.0 26.8 106.3 96 0 -1 1 442 30
04/20/16 Video View Arcia, Oswaldo MIN Nelson, Jimmy MIL 6 Miller Park ND 405 109.0 35.3 63.5 138 0 -2 4 403 30
04/23/16 Video View Carter, Chris MIL Hinojosa, Dalier PHI 8 Miller Park ND 421 105.2 28.6 102.7 101 0 0 2 420 30
04/30/16 Video View Stanton, Giancarlo MIA Anderson, Chase MIL 4 Miller Park ND 460 112.2 23.5 95.8 89 0 -1 1 459 30
04/04/16 Video View Duffy, Matt SF Torres, Carlos MIL 5 Miller Park PL 380 101.7 35.6 110.6 128 0 -1 3 379 30
04/04/16 Video View Span, Denard SF Pena, Ariel MIL 8 Miller Park PL 379 100.1 29.7 67.0 87 0 -1 1 379 29
04/04/16 Video View Posey, Buster SF Pena, Ariel MIL 8 Miller Park PL 424 105.9 23.4 93.4 79 0 0 1 424 26
04/05/16 Video View Crawford, Brandon SF Nelson, Jimmy MIL 3 Miller Park PL 376 102.1 36.0 65.9 128 0 -2 3 375 29
04/06/16 Video View Duffy, Matt SF Jungmann, Taylor MIL 2 Miller Park PL 429 106.3 24.6 95.5 85 0 0 0 429 29
04/08/16 Video View Braun, Ryan MIL Fields, Josh HOU 8 Miller Park PL 422 103.4 27.6 85.2 98 0 1 1 421 25
04/09/16 Video View Gennett, Scooter MIL Fister, Doug HOU 5 Miller Park PL 372 100.7 26.9 66.4 72 0 -1 1 372 24
04/20/16 Video View Hill, Aaron MIL Pressly, Ryan MIN 6 Miller Park PL 401 103.5 29.6 110.0 96 0 -1 1 401 30
04/21/16 Video View Sano, Miguel MIN Torres, Carlos MIL 7 Miller Park PL 416 102.6 29.2 82.6 104 0 0 1 415 27
04/21/16 Video View Dozier, Brian MIN Freeman, Sam MIL 8 Miller Park PL 384 101.3 33.6 113.2 112 0 0 2 382 30
04/22/16 Video View Franco, Maikel PHI Davies, Zach MIL 5 Miller Park PL 377 102.5 36.9 109.9 139 0 -1 3 375 30
04/22/16 Video View Franco, Maikel PHI Capuano, Chris MIL 7 Miller Park PL 417 104.1 27.5 100.5 94 0 -1 1 416 30
04/23/16 Video View Braun, Ryan MIL Oberholtzer, Brett PHI 3 Miller Park PL 393 109.7 22.6 113.6 60 0 0 1 392 30
04/23/16 Video View Franco, Maikel PHI Anderson, Chase MIL 4 Miller Park PL 379 101.2 28.8 116.1 81 0 0 1 378 30
04/23/16 Video View Herrera, Odubel PHI Jeffress, Jeremy MIL 9 Miller Park PL 400 99.7 28.4 96.1 94 0 -1 1 399 11
04/24/16 Video View Braun, Ryan MIL Eickhoff, Jerad PHI 4 Miller Park PL 362 97.0 34.0 66.0 104 0 -1 2 361 25
04/24/16 Video View Presley, Alex MIL Neris, Hector PHI 6 Miller Park PL 388 104.9 23.7 72.1 65 0 0 0 387 25
04/29/16 Video View Bour, Justin MIA Davies, Zach MIL 1 Miller Park PL 404 102.1 28.6 77.2 95 0 0 1 403 29
04/29/16 Video View Bour, Justin MIA Boyer, Blaine MIL 6 Miller Park PL 364 97.8 36.2 72.2 124 0 -1 2 363 13
04/30/16 Video View Dietrich, Derek MIA Anderson, Chase MIL 1 Miller Park PL 403 104.0 27.5 71.6 86 0 -1 1 402 30
04/30/16 Video View Ozuna, Marcell MIA Capuano, Chris MIL 6 Miller Park PL 415 106.3 23.8 79.5 75 0 0 1 414 28
05/01/16 Video View Carter, Chris MIL Koehler, Tom MIA 3 Miller Park PL 428 106.0 26.0 81.8 91 0 0 1 428 30
05/01/16 Video View Ozuna, Marcell MIA Peralta, Wily MIL 5 Miller Park PL 393 101.1 30.5 108.0 99 0 0 2 391 30
05/03/16 Video View Carter, Chris MIL Tropeano, Nick LAA 3 Miller Park PL 433 109.5 20.9 91.7 69 0 0 0 433 26
05/03/16 Video View Carter, Chris MIL Tropeano, Nick LAA 5 Miller Park PL 417 106.3 34.3 101.3 143 0 0 3 414 30
05/03/16 Video View Lucroy, Jonathan MIL Tropeano, Nick LAA 5 Miller Park PL 397 105.2 25.4 109.8 73 0 0 1 396 30


About HitTracker | Contact Us
© 2006-2016 HitTrackerOnline